CZ-6A DEB, 56265

Orbit data source: Space-Track

CZ-6A DEB, 56265 is space debris in SSO originally from a launch on Fri, 11 Nov 2022 UTC launched from the Taiyaun Space Center, China (TSC). Debris objects in space refer to the collection of defunct objects orbiting the Earth. Examples of debris include non-operational satellites, rocket bodies, and fragments generated from explosions, collisions, or faulty payload assembly.

Loading next visibility...
Identifier
56265, 2022-151ACH
Orbit
SSO
Country
Flag of CNCN / PRC
Related business
Manufacturer
SAST
Mission
Spacecraft
Bus & Motor
Unknown
Mass
Unknown
Launch date (UTC)
2022-11-11 (4 years ago)
Launch vehicle
Unknown
Launch site
Taiyaun Space Center, China (TSC)
Object type
Payload
Rocket body
Debris
Shape & HBR
Unknown shape, 0.1 m
Radar Cross Section
Medium (>0.1 m² and <1 m²)

Expand to show TLE details & history
Last TLE update: 5 hours ago

TLE from 5 hours ago
0 CZ-6A DEB
1 56265U 22151ACH 26236.48406487  .00001378  00000-0  70059-3 0  9998
2 56265  98.8293 242.1018 0040756 135.5166 224.9293 14.17104726177023
Epoch: 2026-08-24T11:37Z
TLE epoch observation values (Epoch: 2026-08-24T11:37:03.204Z)
Latitude
-0.00004°
Longitude
95.07335°
Altitude
858.945 km
Speed
7.412 km/s
True Right ascension
16h 08m 24s
True Declination
0° 00' 00"
Sunlit
Object was in daylight at epoch
Visualization orbit readout
Latitude
Unknown
Longitude
Unknown
Altitude
Unknown
Speed
Unknown
Apparent Right ascension
Unknown
Apparent Declination
Unknown
Sunlit
N/A
Visualization observer readout
Local Sidereal Time
08:03:34
Azimuth
Unknown
Elevation
Unknown
Doppler factor
Unknown
Orbital elements
Apogee altitude
861.716 km
Perigee altitude
802.942 km
Semi-major axis
7,210.466 km
Eccentricity
0.00408
Inclination
98.8293°
RAAN
242.1018°
Arg. of periapsis
135.5166°
True anomaly
224.60066°
Mean anomaly
224.9293°
Eccentric anomaly
224.76486°
Mean motion
3.54485 °/min
Orbital period
101.56 mins
BSTAR
0.00070059
Loading maneuver chart data...
Computing Atmospheric mass density...
Loading historical data...
Loading historical data...
Loading historical data...
Loading historical data...
Loading historical data...
Loading historical data...
Loading historical data...

Documentation

Showing up to 5 results
|